sat.trackr.live / text

‹ back to catalog

STARLINK-1356

NORAD 45564 · 2020-025AK

PAYLOAD ACTIVE UNKNOWN

§ Identity

Operator
Country
US
Launch date
2020-04-22
Launch site
AFETR
Launch vehicle
Mass (kg)
RCS (m²)

Purposes: comms

External: N2YO · Heavens-Above · Gunter

§ Orbital elements

Epoch: 2026-05-25T02:32:08.020032Z

Period
92.55 min
Inclination
53.0452°
Eccentricity
0.0002655
Mean motion
15.55933002 rev/d
Perigee alt
397.6 km
Apogee alt
401.2 km
Semi-major
6,777.6 km
B*
8.3700e-4
RAAN
66.7872°
Arg perigee
62.5672°
Mean anomaly
297.5608°
Rev number
33,740

§ Raw data

STARLINK-13561 45564U 20025AK  26145.10564838  .00059085  00000+0  83700-3 0  99932 45564  53.0452  66.7872 0002655  62.5672 297.5608 15.55933002337404

JSON: /api/v1/satellites/45564 · /tle

For live sub-satellite position, see the globe view (requires WebGL).

§ Visibility from observer

Set your observer location to see the next 7 days of passes ≥ 10°. The values pass through the URL so the page stays shareable.

No JS? Fill the form by hand. The geolocation button needs JavaScript.